Location: Munkebjergskolens Observatorium
(55.3864°N, 10.3987°E)
Time: 09:25:27
(UTC+02:00)

JY1SAT - Pass Details

Date: 02 April 2023
Orbit: 555 x 574 km, 97.6° (Epoch: 03 June)

Event Time Altitude Azimuth Distance (km) Brightness Sun altitude
Exits shadow 23:34:10 18° 251° (WSW) 1,416 ? -25.6°
Maximum altitude 23:35:09 20° 270° (W) 1,355 ? -25.6°
Drops below altitude 10° 23:38:08 10° 318° (NW) 1,875 ? -25.8°
Sets 23:40:48 0° 336° (NNW) 2,783 ? -26.0°
